Location: Ravensburg
(47.7866°N, 9.6124°E)
Time: 03:28:35
(UTC+02:00)

CAS-6 - Pass Details

Date: 16 March 2026
Orbit: 601 x 618 km, 97.8° (Epoch: 14 April)

Event Time Altitude Azimuth Distance (km) Brightness Sun altitude
Exits shadow 20:59:33 13° 26° (NNE) 1,790 ? -25.3°
Drops below altitude 10° 21:00:11 10° 19° (NNE) 1,957 ? -25.4°
Sets 21:02:55 0° 1° (N) 2,868 ? -25.8°
